| time (UTC) | temp C | wind direction | speed KPH | gust KPH | rain 1hr cm | rain 24hr cm | rain mn cm | humidity % | barometer mb |
| 20260510064028 | 10 | 190 | 0.0 | 1.6 | 0.00 | 1.17 | 0.00 | 99 | 1011.5 |
| 20260510063528 | 10 | 194 | 0.0 | 6.4 | 0.00 | 1.17 | 0.00 | 99 | 1011.7 |
| 20260510063047 | 10 | 189 | 0.0 | 4.8 | 0.00 | 1.17 | 0.00 | 99 | 1011.7 |
| 20260510062527 | 10 | 179 | 0.0 | 4.8 | 0.00 | 1.17 | 0.00 | 99 | 1011.6 |
| 20260510062027 | 10 | 0.0 | 0.0 | 0.00 | 1.17 | 0.00 | 99 | 1011.7 | |
| 20260510061527 | 10 | 0.0 | 0.0 | 0.00 | 1.17 | 0.00 | 99 | 1011.7 | |
| 20260510061029 | 10 | 0.0 | 0.0 | 0.00 | 1.17 | 0.00 | 99 | 1011.6 | |
| 20260510060549 | 10 | 0.0 | 0.0 | 0.00 | 1.17 | 0.00 | 99 | 1011.5 | |
| 20260510060029 | 10 | 0.0 | 0.0 | 0.00 | 1.17 | 0.00 | 99 | 1011.3 | |
| 20260510055527 | 10 | 0.0 | 0.0 | 0.00 | 1.17 | 0.00 | 99 | 1011.3 | |
| 20260510055027 | 10 | 0.0 | 0.0 | 0.00 | 1.17 | 0.00 | 99 | 1011.4 | |
| 20260510054526 | 10 | 0.0 | 0.0 | 0.00 | 1.17 | 0.00 | 99 | 1011.5 | |
| 20260510054048 | 10 | 0.0 | 0.0 | 0.00 | 1.17 | 0.00 | 99 | 1011.7 | |
| 20260510053528 | 10 | 0.0 | 0.0 | 0.00 | 1.17 | 0.00 | 99 | 1011.7 | |
| 20260510053028 | 10 | 0.0 | 0.0 | 0.00 | 1.17 | 0.00 | 99 | 1011.8 | |
| 20260510052527 | 10 | 0.0 | 0.0 | 0.00 | 1.17 | 0.00 | 99 | 1011.8 | |
| 20260510052108 | 10 | 0.0 | 0.0 | 0.00 | 1.17 | 0.00 | 99 | 1011.7 | |
| 20260510051548 | 10 | 0.0 | 0.0 | 0.00 | 1.17 | 0.00 | 99 | 1011.7 | |
| 20260510051027 | 10 | 0.0 | 0.0 | 0.00 | 1.17 | 0.00 | 99 | 1011.8 | |
| 20260510050527 | 10 | 0.0 | 0.0 | 0.00 | 1.17 | 0.00 | 99 | 1011.8 | |
| 20260510050027 | 10 | 0.0 | 0.0 | 0.00 | 1.17 | 0.00 | 99 | 1011.8 | |
| 20260510045527 | 10 | 0.0 | 0.0 | 0.00 | 1.17 | 0.00 | 99 | 1011.9 | |
| 20260510045027 | 10 | 0.0 | 0.0 | 0.03 | 1.17 | 0.00 | 99 | 1011.9 | |
| 20260510044527 | 10 | 0.0 | 0.0 | 0.03 | 1.17 | 0.00 | 99 | 1011.9 | |
| 20260510044027 | 10 | 0.0 | 0.0 | 0.03 | 1.17 | 0.00 | 98 | 1011.9 | |
| 20260510043547 | 10 | 0.0 | 0.0 | 0.03 | 1.17 | 0.00 | 98 | 1012.0 | |
| 20260510043026 | 10 | 147 | 0.0 | 6.4 | 0.03 | 1.17 | 0.00 | 98 | 1012.0 |
| 20260510042548 | 10 | 172 | 1.6 | 6.4 | 0.03 | 1.17 | 0.00 | 98 | 1011.9 |
| 20260510042028 | 10 | 163 | 0.0 | 4.8 | 0.03 | 1.17 | 0.00 | 98 | 1011.9 |
| 20260510041528 | 10 | 159 | 1.6 | 6.4 | 0.03 | 1.17 | 0.00 | 98 | 1011.7 |
| 20260510041108 | 10 | 118 | 1.6 | 14.5 | 0.03 | 1.17 | 0.00 | 98 | 1011.5 |
| 20260510040548 | 10 | 110 | 0.0 | 1.6 | 0.00 | 1.14 | 0.00 | 98 | 1011.7 |
| 20260510040028 | 10 | 128 | 1.6 | 6.4 | 0.00 | 1.14 | 0.00 | 98 | 1011.8 |
| 20260510035527 | 10 | 154 | 1.6 | 4.8 | 0.00 | 1.14 | 1.14 | 98 | 1011.9 |
| 20260510035027 | 10 | 205 | 0.0 | 1.6 | 0.00 | 1.14 | 1.14 | 98 | 1011.9 |
| 20260510034527 | 10 | 0.0 | 0.0 | 0.00 | 1.14 | 1.14 | 98 | 1012.0 | |
| 20260510034027 | 10 | 0.0 | 0.0 | 0.00 | 1.14 | 1.14 | 98 | 1012.0 | |
| 20260510033527 | 10 | 222 | 0.0 | 1.6 | 0.00 | 1.14 | 1.14 | 97 | 1012.2 |
| 20260510033026 | 11 | 0.0 | 0.0 | 0.00 | 1.14 | 1.14 | 97 | 1012.2 | |
| 20260510032526 | 11 | 222 | 0.0 | 1.6 | 0.00 | 1.14 | 1.14 | 97 | 1012.3 |
| 20260510032026 | 11 | 0.0 | 0.0 | 0.00 | 1.14 | 1.14 | 96 | 1012.2 | |
| 20260510031548 | 11 | 196 | 0.0 | 3.2 | 0.00 | 1.14 | 1.14 | 96 | 1012.2 |
| 20260510031028 | 11 | 134 | 0.0 | 3.2 | 0.00 | 1.14 | 1.14 | 95 | 1012.3 |
| 20260510030528 | 11 | 149 | 0.0 | 4.8 | 0.00 | 1.14 | 1.14 | 95 | 1012.3 |
| 20260510030028 | 11 | 172 | 1.6 | 6.4 | 0.00 | 1.14 | 1.14 | 96 | 1012.3 |
| 20260510025528 | 11 | 124 | 1.6 | 4.8 | 0.00 | 1.14 | 1.14 | 96 | 1012.4 |
| 20260510025027 | 11 | 165 | 0.0 | 6.4 | 0.00 | 1.14 | 1.14 | 96 | 1012.4 |
| 20260510024527 | 11 | 160 | 3.2 | 11.3 | 0.00 | 1.14 | 1.14 | 96 | 1012.3 |
| 20260510024027 | 11 | 171 | 1.6 | 4.8 | 0.00 | 1.14 | 1.14 | 96 | 1012.5 |
| 20260510023527 | 11 | 219 | 1.6 | 6.4 | 0.00 | 1.14 | 1.14 | 96 | 1012.6 |
| 20260510023029 | 11 | 174 | 0.0 | 4.8 | 0.00 | 1.14 | 1.14 | 96 | 1012.5 |
| 20260510022528 | 11 | 122 | 3.2 | 12.9 | 0.00 | 1.14 | 1.14 | 96 | 1012.6 |
| 20260510022028 | 11 | 159 | 1.6 | 12.9 | 0.00 | 1.14 | 1.14 | 96 | 1012.6 |
| 20260510021528 | 11 | 156 | 3.2 | 9.7 | 0.00 | 1.14 | 1.14 | 96 | 1012.6 |
| 20260510021028 | 11 | 188 | 1.6 | 6.4 | 0.00 | 1.14 | 1.14 | 97 | 1012.6 |
| 20260510020528 | 11 | 177 | 4.8 | 16.1 | 0.00 | 1.12 | 1.12 | 97 | 1012.7 |
| 20260510020028 | 11 | 190 | 3.2 | 16.1 | 0.00 | 1.12 | 1.12 | 99 | 1012.7 |
| 20260510015527 | 11 | 152 | 3.2 | 11.3 | 0.00 | 1.12 | 1.12 | 99 | 1012.7 |
| 20260510015048 | 11 | 178 | 3.2 | 14.5 | 0.00 | 1.12 | 1.12 | 99 | 1012.8 |
| 20260510014527 | 11 | 194 | 1.6 | 9.7 | 0.00 | 1.12 | 1.12 | 99 | 1012.8 |
| 20260510014027 | 11 | 133 | 1.6 | 9.7 | 0.00 | 1.12 | 1.12 | 99 | 1012.7 |
| 20260510013527 | 11 | 196 | 1.6 | 4.8 | 0.00 | 1.12 | 1.12 | 99 | 1012.8 |
| 20260510013026 | 10 | 196 | 1.6 | 3.2 | 0.03 | 1.12 | 1.12 | 99 | 1012.9 |
| 20260510012528 | 10 | 157 | 0.0 | 1.6 | 0.03 | 1.12 | 1.12 | 99 | 1012.9 |
| 20260510012028 | 10 | 0.0 | 1.6 | 0.03 | 1.12 | 1.12 | 99 | 1012.7 | |
| 20260510011548 | 10 | 157 | 0.0 | 3.2 | 0.05 | 1.12 | 1.12 | 99 | 1012.7 |
| 20260510011048 | 9 | 0.0 | 0.0 | 0.05 | 1.12 | 1.12 | 99 | 1012.7 | |
| 20260510010527 | 9 | 0.0 | 0.0 | 0.05 | 1.12 | 1.12 | 99 | 1012.7 | |
| 20260510010028 | 9 | 0.0 | 0.0 | 0.08 | 1.12 | 1.12 | 99 | 1012.7 | |
| 20260510005527 | 9 | 0.0 | 0.0 | 0.10 | 1.12 | 1.12 | 99 | 1012.7 | |
| 20260510005029 | 9 | 0.0 | 0.0 | 0.15 | 1.12 | 1.12 | 99 | 1012.7 | |
| 20260510004529 | 9 | 0.0 | 0.0 | 0.18 | 1.12 | 1.12 | 99 | 1012.7 | |
| 20260510004049 | 9 | 0.0 | 0.0 | 0.20 | 1.12 | 1.12 | 99 | 1012.7 | |
| 20260510003549 | 9 | 146 | 0.0 | 1.6 | 0.20 | 1.12 | 1.12 | 99 | 1012.7 |
| 20260510003029 | 9 | 0.0 | 0.0 | 0.23 | 1.12 | 1.12 | 99 | 1012.7 | |
| 20260510002529 | 9 | 0.0 | 0.0 | 0.25 | 1.12 | 1.12 | 99 | 1012.7 | |
| 20260510002028 | 9 | 145 | 0.0 | 1.6 | 0.28 | 1.09 | 1.09 | 99 | 1012.7 |
| 20260510001528 | 9 | 0.0 | 0.0 | 0.30 | 1.09 | 1.09 | 99 | 1012.8 | |
| 20260510001028 | 9 | 0.0 | 0.0 | 0.33 | 1.07 | 1.07 | 99 | 1012.9 | |
| 20260510000528 | 9 | 0.0 | 0.0 | 0.33 | 1.07 | 1.07 | 99 | 1013.0 | |
| 20260510000028 | 9 | 0.0 | 0.0 | 0.36 | 1.07 | 1.07 | 99 | 1013.0 | |
| 20260509235529 | 9 | 137 | 0.0 | 1.6 | 0.38 | 1.02 | 1.02 | 99 | 1013.0 |
| 20260509235028 | 9 | 0.0 | 0.0 | 0.36 | 0.97 | 0.97 | 99 | 1013.1 | |
| 20260509234527 | 9 | 122 | 0.0 | 1.6 | 0.36 | 0.94 | 0.94 | 99 | 1013.1 |
| 20260509234050 | 9 | 0.0 | 0.0 | 0.33 | 0.91 | 0.91 | 99 | 1013.0 | |
| 20260509233529 | 9 | 106 | 0.0 | 1.6 | 0.33 | 0.91 | 0.91 | 99 | 1012.9 |
| 20260509233029 | 9 | 0.0 | 0.0 | 0.33 | 0.89 | 0.89 | 99 | 1012.8 | |
| 20260509232529 | 9 | 106 | 0.0 | 1.6 | 0.30 | 0.86 | 0.86 | 99 | 1012.9 |
| 20260509232029 | 9 | 106 | 0.0 | 1.6 | 0.28 | 0.81 | 0.81 | 99 | 1012.9 |
| 20260509231528 | 9 | 105 | 0.0 | 1.6 | 0.25 | 0.79 | 0.79 | 99 | 1012.8 |
| 20260509231028 | 9 | 105 | 0.0 | 3.2 | 0.23 | 0.76 | 0.76 | 99 | 1012.7 |
| 20260509230528 | 9 | 109 | 1.6 | 3.2 | 0.20 | 0.74 | 0.74 | 99 | 1012.6 |
| 20260509230028 | 9 | 65 | 1.6 | 3.2 | 0.20 | 0.71 | 0.71 | 99 | 1012.9 |
| 20260509225528 | 9 | 21 | 0.0 | 1.6 | 0.15 | 0.66 | 0.66 | 99 | 1012.8 |
| 20260509225028 | 9 | 0.0 | 0.0 | 0.15 | 0.61 | 0.61 | 99 | 1012.6 | |
| 20260509224528 | 10 | 0.0 | 0.0 | 0.13 | 0.58 | 0.58 | 99 | 1012.6 | |
| 20260509224027 | 10 | 0.0 | 0.0 | 0.13 | 0.58 | 0.58 | 99 | 1012.5 | |
| 20260509223528 | 10 | 0.0 | 0.0 | 0.13 | 0.56 | 0.56 | 99 | 1012.4 | |
| 20260509223029 | 10 | 0.0 | 0.0 | 0.13 | 0.56 | 0.56 | 99 | 1012.4 | |
| 20260509222529 | 10 | 0.0 | 0.0 | 0.13 | 0.56 | 0.56 | 98 | 1012.4 | |
| 20260509222029 | 10 | 0.0 | 0.0 | 0.15 | 0.56 | 0.56 | 98 | 1012.5 | |
| 20260509221529 | 10 | 0.0 | 0.0 | 0.15 | 0.53 | 0.53 | 98 | 1012.5 | |
| 20260509221029 | 10 | 0.0 | 0.0 | 0.18 | 0.53 | 0.53 | 98 | 1012.6 | |
| 20260509220528 | 10 | 0.0 | 0.0 | 0.18 | 0.53 | 0.53 | 98 | 1012.6 | |
| 20260509220028 | 10 | 0.0 | 0.0 | 0.20 | 0.51 | 0.51 | 98 | 1012.5 | |
| 20260509215528 | 10 | 5 | 0.0 | 1.6 | 0.23 | 0.51 | 0.51 | 98 | 1012.5 |
| 20260509215028 | 10 | 0.0 | 0.0 | 0.20 | 0.46 | 0.46 | 98 | 1012.5 | |
| 20260509214527 | 10 | 0.0 | 0.0 | 0.20 | 0.46 | 0.46 | 98 | 1012.4 | |
| 20260509214048 | 10 | 300 | 0.0 | 1.6 | 0.20 | 0.43 | 0.43 | 98 | 1012.3 |
| 20260509213548 | 10 | 0.0 | 0.0 | 0.20 | 0.43 | 0.43 | 98 | 1012.4 | |
| 20260509213027 | 10 | 297 | 0.0 | 1.6 | 0.20 | 0.43 | 0.43 | 98 | 1012.4 |
| 20260509212528 | 10 | 42 | 1.6 | 4.8 | 0.20 | 0.43 | 0.43 | 98 | 1012.4 |
| 20260509212028 | 10 | 115 | 0.0 | 3.2 | 0.20 | 0.41 | 0.41 | 97 | 1012.4 |
| 20260509211527 | 10 | 305 | 0.0 | 1.6 | 0.20 | 0.38 | 0.38 | 97 | 1012.4 |
| 20260509211027 | 10 | 304 | 0.0 | 4.8 | 0.23 | 0.36 | 0.36 | 97 | 1012.3 |
| 20260509210527 | 10 | 332 | 0.0 | 4.8 | 0.23 | 0.36 | 0.36 | 96 | 1012.2 |
| 20260509210027 | 10 | 79 | 1.6 | 6.4 | 0.18 | 0.30 | 0.30 | 96 | 1012.3 |
| 20260509205527 | 10 | 11 | 0.0 | 1.6 | 0.18 | 0.28 | 0.28 | 96 | 1012.1 |
| 20260509205027 | 10 | 54 | 0.0 | 1.6 | 0.18 | 0.28 | 0.28 | 96 | 1012.3 |
| 20260509204547 | 10 | 0.0 | 0.0 | 0.15 | 0.25 | 0.25 | 95 | 1012.3 | |
| 20260509204027 | 10 | 0.0 | 0.0 | 0.15 | 0.25 | 0.25 | 95 | 1012.2 | |
| 20260509203527 | 10 | 0.0 | 0.0 | 0.13 | 0.23 | 0.23 | 95 | 1012.3 | |
| 20260509203026 | 10 | 0.0 | 0.0 | 0.13 | 0.23 | 0.23 | 94 | 1012.3 | |
| 20260509202526 | 11 | 0.0 | 0.0 | 0.10 | 0.20 | 0.20 | 93 | 1012.4 | |
| 20260509202029 | 11 | 79 | 0.0 | 1.6 | 0.10 | 0.18 | 0.18 | 92 | 1012.4 |
| 20260509201528 | 11 | 79 | 0.0 | 1.6 | 0.08 | 0.18 | 0.18 | 92 | 1012.4 |
| 20260509201028 | 11 | 84 | 0.0 | 3.2 | 0.05 | 0.13 | 0.13 | 90 | 1012.3 |
| 20260509200608 | 11 | 93 | 0.0 | 3.2 | 0.03 | 0.13 | 0.13 | 89 | 1012.4 |
| 20260509200027 | 11 | 92 | 0.0 | 3.2 | 0.03 | 0.13 | 0.13 | 87 | 1012.4 |
| 20260509195549 | 11 | 104 | 0.0 | 4.8 | 0.00 | 0.10 | 0.10 | 85 | 1012.5 |
| 20260509195048 | 12 | 77 | 1.6 | 3.2 | 0.00 | 0.10 | 0.10 | 85 | 1012.5 |
| 20260509194548 | 12 | 79 | 1.6 | 4.8 | 0.00 | 0.10 | 0.10 | 84 | 1012.5 |
| 20260509194028 | 12 | 52 | 0.0 | 3.2 | 0.00 | 0.10 | 0.10 | 84 | 1012.5 |
| 20260509193529 | 12 | 73 | 0.0 | 4.8 | 0.00 | 0.10 | 0.10 | 84 | 1012.6 |
| 20260509193048 | 12 | 70 | 0.0 | 3.2 | 0.00 | 0.10 | 0.10 | 84 | 1012.4 |
| 20260509192527 | 12 | 75 | 0.0 | 4.8 | 0.00 | 0.10 | 0.10 | 84 | 1012.5 |
| 20260509192028 | 12 | 79 | 1.6 | 11.3 | 0.00 | 0.10 | 0.10 | 83 | 1012.3 |
| 20260509191527 | 12 | 84 | 1.6 | 4.8 | 0.00 | 0.10 | 0.10 | 84 | 1012.4 |
| 20260509191028 | 12 | 121 | 0.0 | 4.8 | 0.00 | 0.10 | 0.10 | 85 | 1012.2 |
| 20260509190527 | 12 | 86 | 1.6 | 9.7 | 0.00 | 0.10 | 0.10 | 84 | 1012.3 |
| 20260509190029 | 12 | 76 | 1.6 | 4.8 | 0.00 | 0.10 | 0.10 | 84 | 1012.3 |
| 20260509185529 | 12 | 95 | 1.6 | 9.7 | 0.00 | 0.10 | 0.10 | 85 | 1012.2 |
| 20260509185048 | 12 | 88 | 1.6 | 4.8 | 0.00 | 0.10 | 0.10 | 84 | 1012.3 |
| 20260509184528 | 12 | 267 | 1.6 | 3.2 | 0.00 | 0.10 | 0.10 | 84 | 1012.4 |
| 20260509184028 | 12 | 154 | 0.0 | 1.6 | 0.00 | 0.10 | 0.10 | 85 | 1012.1 |
| 20260509183528 | 11 | 74 | 1.6 | 11.3 | 0.00 | 0.10 | 0.10 | 85 | 1012.2 |
| 20260509183028 | 11 | 91 | 1.6 | 6.4 | 0.00 | 0.10 | 0.10 | 85 | 1012.3 |
| 20260509182548 | 11 | 82 | 1.6 | 6.4 | 0.00 | 0.10 | 0.10 | 84 | 1012.7 |
| 20260509182028 | 11 | 82 | 1.6 | 4.8 | 0.00 | 0.10 | 0.10 | 83 | 1013.3 |
| 20260509181528 | 11 | 80 | 0.0 | 1.6 | 0.00 | 0.10 | 0.10 | 83 | 1013.4 |
| 20260509181028 | 11 | 90 | 0.0 | 3.2 | 0.00 | 0.10 | 0.10 | 83 | 1013.5 |
| 20260509180527 | 11 | 111 | 0.0 | 3.2 | 0.00 | 0.10 | 0.10 | 82 | 1013.6 |
| 20260509180027 | 11 | 138 | 0.0 | 4.8 | 0.00 | 0.10 | 0.10 | 82 | 1013.5 |
| 20260509175547 | 11 | 129 | 1.6 | 6.4 | 0.00 | 0.10 | 0.10 | 82 | 1013.4 |
| 20260509175027 | 11 | 77 | 1.6 | 4.8 | 0.00 | 0.10 | 0.10 | 81 | 1013.4 |
| 20260509174529 | 11 | 98 | 1.6 | 6.4 | 0.00 | 0.10 | 0.10 | 81 | 1013.2 |
| 20260509174049 | 11 | 110 | 3.2 | 9.7 | 0.00 | 0.10 | 0.10 | 81 | 1013.2 |
| 20260509173548 | 11 | 98 | 1.6 | 9.7 | 0.00 | 0.10 | 0.10 | 81 | 1013.3 |
| 20260509173028 | 11 | 79 | 1.6 | 6.4 | 0.00 | 0.10 | 0.10 | 81 | 1013.5 |
| 20260509172528 | 11 | 89 | 3.2 | 9.7 | 0.00 | 0.10 | 0.10 | 80 | 1013.4 |
| 20260509172028 | 11 | 86 | 3.2 | 6.4 | 0.00 | 0.10 | 0.10 | 81 | 1013.5 |
| 20260509171528 | 11 | 74 | 1.6 | 4.8 | 0.00 | 0.10 | 0.10 | 79 | 1013.4 |
| 20260509171048 | 11 | 84 | 1.6 | 6.4 | 0.00 | 0.10 | 0.10 | 80 | 1013.5 |
| 20260509170528 | 11 | 90 | 3.2 | 9.7 | 0.00 | 0.10 | 0.10 | 78 | 1013.6 |
| 20260509170028 | 11 | 109 | 1.6 | 9.7 | 0.00 | 0.10 | 0.10 | 77 | 1013.7 |
| 20260509165527 | 11 | 94 | 1.6 | 3.2 | 0.00 | 0.10 | 0.10 | 77 | 1013.5 |
| 20260509165027 | 11 | 75 | 1.6 | 9.7 | 0.00 | 0.10 | 0.10 | 77 | 1013.6 |
| 20260509164527 | 11 | 87 | 1.6 | 4.8 | 0.00 | 0.10 | 0.10 | 76 | 1013.7 |
| 20260509164027 | 11 | 93 | 1.6 | 4.8 | 0.00 | 0.10 | 0.10 | 76 | 1013.8 |
| 20260509163527 | 11 | 100 | 1.6 | 4.8 | 0.03 | 0.10 | 0.10 | 76 | 1013.9 |
| 20260509163027 | 11 | 115 | 1.6 | 6.4 | 0.03 | 0.10 | 0.10 | 75 | 1013.9 |
| 20260509162526 | 11 | 184 | 0.0 | 3.2 | 0.03 | 0.10 | 0.10 | 77 | 1013.8 |
| 20260509162027 | 11 | 109 | 1.6 | 4.8 | 0.03 | 0.10 | 0.10 | 76 | 1013.8 |
| 20260509161547 | 11 | 135 | 1.6 | 6.4 | 0.03 | 0.10 | 0.10 | 77 | 1013.8 |
| 20260509161028 | 11 | 129 | 1.6 | 6.4 | 0.03 | 0.10 | 0.10 | 77 | 1013.9 |
| 20260509160528 | 11 | 122 | 0.0 | 3.2 | 0.03 | 0.10 | 0.10 | 79 | 1014.0 |
| 20260509160028 | 10 | 134 | 0.0 | 3.2 | 0.03 | 0.10 | 0.10 | 80 | 1014.1 |
| 20260509155528 | 10 | 114 | 1.6 | 9.7 | 0.03 | 0.10 | 0.10 | 81 | 1014.0 |
| 20260509155028 | 10 | 75 | 1.6 | 6.4 | 0.03 | 0.08 | 0.08 | 83 | 1013.8 |
| 20260509154527 | 10 | 63 | 0.0 | 4.8 | 0.03 | 0.08 | 0.08 | 82 | 1014.0 |
| 20260509154027 | 10 | 80 | 1.6 | 9.7 | 0.03 | 0.08 | 0.08 | 82 | 1014.0 |
| 20260509153527 | 10 | 81 | 3.2 | 9.7 | 0.00 | 0.08 | 0.08 | 83 | 1014.0 |
| 20260509153027 | 10 | 85 | 1.6 | 9.7 | 0.00 | 0.08 | 0.08 | 86 | 1014.0 |
| 20260509152527 | 10 | 90 | 0.0 | 3.2 | 0.03 | 0.08 | 0.08 | 88 | 1014.1 |
| 20260509152029 | 10 | 80 | 0.0 | 1.6 | 0.03 | 0.08 | 0.08 | 87 | 1014.3 |
| 20260509151529 | 10 | 80 | 0.0 | 3.2 | 0.03 | 0.08 | 0.08 | 89 | 1014.4 |
| 20260509151029 | 9 | 90 | 0.0 | 1.6 | 0.03 | 0.08 | 0.08 | 90 | 1014.4 |
| 20260509150528 | 9 | 90 | 0.0 | 1.6 | 0.03 | 0.08 | 0.08 | 91 | 1014.3 |
| 20260509150028 | 9 | 90 | 0.0 | 1.6 | 0.03 | 0.08 | 0.08 | 90 | 1014.4 |
| 20260509145548 | 9 | 90 | 0.0 | 1.6 | 0.03 | 0.08 | 0.08 | 90 | 1014.5 |
| 20260509145028 | 9 | 90 | 0.0 | 1.6 | 0.03 | 0.08 | 0.08 | 88 | 1014.7 |
| 20260509144528 | 9 | 108 | 0.0 | 3.2 | 0.03 | 0.08 | 0.08 | 89 | 1014.8 |
| 20260509144028 | 8 | 0.0 | 0.0 | 0.03 | 0.08 | 0.08 | 89 | 1015.0 | |
| 20260509143528 | 8 | 0.0 | 0.0 | 0.03 | 0.08 | 0.08 | 88 | 1014.9 | |
| 20260509143027 | 8 | 0.0 | 0.0 | 0.03 | 0.08 | 0.08 | 87 | 1015.0 | |
| 20260509142527 | 8 | 0.0 | 0.0 | 0.03 | 0.05 | 0.05 | 85 | 1015.0 | |
| 20260509142028 | 8 | 0.0 | 0.0 | 0.03 | 0.05 | 0.05 | 86 | 1015.1 | |
| 20260509141527 | 8 | 0.0 | 0.0 | 0.03 | 0.05 | 0.05 | 88 | 1015.1 | |
| 20260509141027 | 8 | 0.0 | 1.6 | 0.03 | 0.05 | 0.05 | 85 | 1015.2 | |
| 20260509140529 | 8 | 130 | 0.0 | 3.2 | 0.03 | 0.05 | 0.05 | 86 | 1015.1 |
| 20260509140029 | 8 | 186 | 0.0 | 3.2 | 0.03 | 0.05 | 0.05 | 87 | 1015.3 |
| 20260509135529 | 8 | 180 | 1.6 | 4.8 | 0.03 | 0.05 | 0.05 | 89 | 1015.2 |
| 20260509135028 | 8 | 199 | 0.0 | 1.6 | 0.03 | 0.05 | 0.05 | 90 | 1015.2 |
| 20260509134528 | 8 | 200 | 0.0 | 3.2 | 0.03 | 0.05 | 0.05 | 91 | 1015.1 |
| 20260509134028 | 8 | 199 | 0.0 | 3.2 | 0.03 | 0.05 | 0.05 | 91 | 1015.2 |
| 20260509133528 | 7 | 0.0 | 0.0 | 0.03 | 0.05 | 0.05 | 90 | 1015.0 | |
| 20260509133028 | 8 | 0.0 | 0.0 | 0.03 | 0.03 | 0.03 | 91 | 1015.0 | |
| 20260509132548 | 7 | 0.0 | 0.0 | 0.03 | 0.03 | 0.03 | 91 | 1014.9 | |
| 20260509132028 | 7 | 0.0 | 0.0 | 0.03 | 0.03 | 0.03 | 92 | 1014.9 | |
| 20260509131527 | 7 | 0.0 | 0.0 | 0.00 | 0.03 | 0.03 | 93 | 1014.8 | |
| 20260509131047 | 7 | 0.0 | 0.0 | 0.00 | 0.03 | 0.03 | 94 | 1014.8 | |
| 20260509130527 | 7 | 0.0 | 0.0 | 0.03 | 0.03 | 0.03 | 94 | 1014.9 | |
| 20260509130047 | 7 | 0.0 | 0.0 | 0.03 | 0.03 | 0.03 | 94 | 1014.9 | |
| 20260509125529 | 7 | 0.0 | 0.0 | 0.03 | 0.03 | 0.03 | 94 | 1014.9 | |
| 20260509125029 | 7 | 0.0 | 0.0 | 0.03 | 0.03 | 0.03 | 94 | 1015.0 | |
| 20260509124529 | 7 | 0.0 | 0.0 | 0.03 | 0.03 | 0.03 | 94 | 1015.1 | |
| 20260509124028 | 7 | 0.0 | 0.0 | 0.03 | 0.03 | 0.03 | 94 | 1015.1 | |
| 20260509123528 | 7 | 0.0 | 0.0 | 0.03 | 0.03 | 0.03 | 93 | 1015.1 | |
| 20260509123029 | 7 | 0.0 | 0.0 | 0.03 | 0.03 | 0.03 | 92 | 1015.2 | |
| 20260509122528 | 7 | 0.0 | 0.0 | 0.03 | 0.03 | 0.03 | 92 | 1015.2 | |
| 20260509122028 | 6 | 0.0 | 0.0 | 0.03 | 0.03 | 0.03 | 91 | 1015.2 | |
| 20260509121528 | 6 | 0.0 | 0.0 | 0.03 | 0.03 | 0.03 | 91 | 1015.3 | |
| 20260509121049 | 6 | 0.0 | 0.0 | 0.03 | 0.03 | 0.03 | 90 | 1015.6 | |
| 20260509120527 | 6 | 210 | 0.0 | 1.6 | 0.00 | 0.00 | 0.00 | 89 | 1015.5 |
| 20260509120027 | 6 | 204 | 0.0 | 1.6 | 0.00 | 0.00 | 0.00 | 88 | 1015.4 |
| 20260509115527 | 6 | 0.0 | 0.0 | 0.00 | 0.00 | 0.00 | 88 | 1015.3 | |
| 20260509115027 | 6 | 93 | 0.0 | 3.2 | 0.00 | 0.00 | 0.00 | 88 | 1015.5 |
| 20260509114547 | 6 | 170 | 0.0 | 3.2 | 0.00 | 0.00 | 0.00 | 87 | 1015.5 |
| 20260509114029 | 6 | 212 | 1.6 | 3.2 | 0.00 | 0.00 | 0.00 | 86 | 1015.5 |
| 20260509113549 | 6 | 0.0 | 0.0 | 0.00 | 0.00 | 0.00 | 84 | 1015.3 | |
| 20260509113049 | 6 | 24 | 0.0 | 1.6 | 0.00 | 0.00 | 0.00 | 85 | 1015.4 |
| 20260509112528 | 6 | 0.0 | 0.0 | 0.00 | 0.00 | 0.00 | 86 | 1015.4 | |
| 20260509112049 | 6 | 19 | 0.0 | 1.6 | 0.00 | 0.00 | 0.00 | 88 | 1015.5 |
| 20260509111528 | 5 | 0.0 | 0.0 | 0.00 | 0.00 | 0.00 | 88 | 1015.4 | |
| 20260509111028 | 5 | 0.0 | 0.0 | 0.00 | 0.00 | 0.00 | 88 | 1015.2 | |
| 20260509110528 | 5 | 0.0 | 0.0 | 0.00 | 0.00 | 0.00 | 88 | 1015.3 | |
| 20260509110028 | 5 | 0.0 | 0.0 | 0.00 | 0.00 | 0.00 | 89 | 1015.3 | |
| 20260509105528 | 5 | 0.0 | 0.0 | 0.00 | 0.00 | 0.00 | 90 | 1015.3 | |
| 20260509105029 | 4 | 0.0 | 0.0 | 0.00 | 0.00 | 0.00 | 91 | 1015.3 | |
| 20260509104529 | 4 | 0.0 | 0.0 | 0.00 | 0.00 | 0.00 | 91 | 1015.4 | |
| 20260509104028 | 4 | 0.0 | 0.0 | 0.00 | 0.00 | 0.00 | 92 | 1015.3 | |
| 20260509103528 | 3 | 0.0 | 0.0 | 0.00 | 0.00 | 0.00 | 92 | 1015.3 | |
| 20260509103028 | 3 | 0.0 | 0.0 | 0.00 | 0.00 | 0.00 | 93 | 1015.2 | |
| 20260509102528 | 3 | 0.0 | 0.0 | 0.00 | 0.00 | 0.00 | 94 | 1015.1 | |
| 20260509102028 | 3 | 0.0 | 0.0 | 0.00 | 0.00 | 0.00 | 94 | 1015.0 | |
| 20260509101528 | 3 | 0.0 | 0.0 | 0.00 | 0.00 | 0.00 | 94 | 1014.9 | |
| 20260509101028 | 2 | 0.0 | 0.0 | 0.00 | 0.00 | 0.00 | 94 | 1015.0 | |
| 20260509100527 | 2 | 0.0 | 0.0 | 0.00 | 0.00 | 0.00 | 94 | 1014.8 | |
| 20260509100027 | 2 | 0.0 | 0.0 | 0.00 | 0.00 | 0.00 | 94 | 1014.7 | |
| 20260509095527 | 2 | 0.0 | 0.0 | 0.00 | 0.00 | 0.00 | 94 | 1014.7 | |
| 20260509095027 | 2 | 0.0 | 0.0 | 0.00 | 0.00 | 0.00 | 94 | 1014.5 | |
| 20260509094547 | 2 | 0.0 | 0.0 | 0.00 | 0.00 | 0.00 | 94 | 1014.5 | |
| 20260509094049 | 2 | 0.0 | 0.0 | 0.00 | 0.00 | 0.00 | 94 | 1014.5 | |
| 20260509093529 | 2 | 0.0 | 0.0 | 0.00 | 0.00 | 0.00 | 94 | 1014.5 | |
| 20260509093029 | 2 | 0.0 | 0.0 | 0.00 | 0.00 | 0.00 | 95 | 1014.5 | |
| 20260509092528 | 2 | 0.0 | 0.0 | 0.00 | 0.00 | 0.00 | 95 | 1014.4 | |
| 20260509092028 | 2 | 0.0 | 0.0 | 0.00 | 0.00 | 0.00 | 95 | 1014.4 | |
| 20260509091528 | 2 | 0.0 | 0.0 | 0.00 | 0.00 | 0.00 | 95 | 1014.4 | |
| 20260509091028 | 2 | 0.0 | 0.0 | 0.00 | 0.00 | 0.00 | 95 | 1014.4 | |
| 20260509090548 | 2 | 0.0 | 0.0 | 0.00 | 0.00 | 0.00 | 95 | 1014.4 | |
| 20260509090028 | 2 | 0.0 | 0.0 | 0.00 | 0.00 | 0.00 | 94 | 1014.3 | |
| 20260509085528 | 2 | 0.0 | 0.0 | 0.00 | 0.00 | 0.00 | 94 | 1014.2 | |
| 20260509085028 | 2 | 0.0 | 0.0 | 0.00 | 0.00 | 0.00 | 94 | 1014.3 | |
| 20260509084527 | 2 | 0.0 | 0.0 | 0.00 | 0.00 | 0.00 | 94 | 1014.3 | |
| 20260509084027 | 2 | 0.0 | 0.0 | 0.00 | 0.00 | 0.00 | 94 | 1014.1 | |
| 20260509083527 | 2 | 0.0 | 0.0 | 0.00 | 0.00 | 0.00 | 94 | 1014.2 | |
| 20260509083027 | 2 | 0.0 | 0.0 | 0.00 | 0.00 | 0.00 | 94 | 1014.2 | |
| 20260509082549 | 2 | 0.0 | 0.0 | 0.00 | 0.00 | 0.00 | 93 | 1014.2 | |
| 20260509082049 | 2 | 0.0 | 0.0 | 0.00 | 0.00 | 0.00 | 92 | 1014.3 | |
| 20260509081548 | 2 | 0.0 | 0.0 | 0.00 | 0.00 | 0.00 | 92 | 1014.2 | |
| 20260509081029 | 2 | 0.0 | 0.0 | 0.00 | 0.00 | 0.00 | 92 | 1014.2 | |
| 20260509080528 | 2 | 0.0 | 0.0 | 0.00 | 0.00 | 0.00 | 92 | 1014.2 | |
| 20260509080049 | 2 | 0.0 | 0.0 | 0.00 | 0.00 | 0.00 | 92 | 1014.2 | |
| 20260509075528 | 2 | 0.0 | 0.0 | 0.00 | 0.00 | 0.00 | 92 | 1014.3 | |
| 20260509075029 | 2 | 0.0 | 0.0 | 0.00 | 0.00 | 0.00 | 91 | 1014.2 | |
| 20260509074528 | 2 | 0.0 | 0.0 | 0.00 | 0.00 | 0.00 | 90 | 1014.5 | |
| 20260509074028 | 2 | 0.0 | 0.0 | 0.00 | 0.00 | 0.00 | 90 | 1014.4 | |
| 20260509073548 | 2 | 0.0 | 0.0 | 0.00 | 0.00 | 0.00 | 90 | 1014.4 | |
| 20260509073027 | 2 | 0.0 | 0.0 | 0.00 | 0.00 | 0.00 | 90 | 1014.4 | |
| 20260509072527 | 3 | 0.0 | 0.0 | 0.00 | 0.00 | 0.00 | 90 | 1014.5 | |
| 20260509072048 | 3 | 0.0 | 0.0 | 0.00 | 0.00 | 0.00 | 90 | 1014.3 | |
| 20260509071547 | 3 | 0.0 | 0.0 | 0.00 | 0.00 | 0.00 | 89 | 1014.4 | |
| 20260509071027 | 3 | 16 | 0.0 | 1.6 | 0.00 | 0.00 | 0.00 | 89 | 1014.3 |
| 20260509070528 | 3 | 16 | 0.0 | 1.6 | 0.00 | 0.00 | 0.00 | 89 | 1014.2 |
| 20260509070028 | 3 | 0.0 | 0.0 | 0.00 | 0.00 | 0.00 | 89 | 1014.1 | |
| 20260509065548 | 3 | 0.0 | 0.0 | 0.00 | 0.00 | 0.00 | 89 | 1013.9 | |
| 20260509065028 | 3 | 0.0 | 0.0 | 0.00 | 0.00 | 0.00 | 89 | 1014.0 | |
| 20260509064528 | 3 | 0.0 | 0.0 | 0.00 | 0.00 | 0.00 | 89 | 1014.0 |